Wheeler AAF, HI

5:38 AM HST on September 23, 2017 (GMT -1000)
Wheeler Army Air Field

Weather History for PHHI - January, 2013

Change the Weather History Date:

Wednesday, January 2, 2013

  Actual Average Record
Temperature  
Mean Temperature 68 °F -  
Max Temperature 71 °F 74 °F 78 °F (2001)
Min Temperature 64 °F 60 °F 59 °F (1997)
Cooling Degree Days 2    
Growing Degree Days 18 (Base 50)    
Moisture  
Dew Point 64 °F    
Average Humidity 89    
Maximum Humidity 94    
Minimum Humidity 77    
Precipitation  
Precipitation 0.10 in - - ()
Sea Level Pressure  
Sea Level Pressure 30.03 in    
Wind  
Wind Speed 6 mph (NNW)    
Max Wind Speed 10 mph    
Max Gust Speed 21 mph    
Visibility 10 miles    
Events Rain    
Averages and records for this station are not official NWS values.
T = Trace of Precipitation, MM = Missing Value Source: NWS Daily Summary

Daily Weather History Graph

Daily Weather History Graph

Search for Another Location

Airport or City:

Trip Planner

Search our weather history database for the weather conditions in past years. The results will help you decide how hot, cold, wet, or windy it might be!

Date:

Astronomy

Jan. 02, 2013 Rise Set
Actual Time 7:10 AM HST 6:02 PM HST
Civil Twilight 6:46 AM HST 6:26 PM HST
Nautical Twilight 6:18 AM HST 6:54 PM HST
Astronomical Twilight 5:51 AM HST 7:21 PM HST
Moon 11:01 PM HST (1/2) 10:38 AM HST (1/2)
Length of Visible Light 11h 40m
Length of Day
10h 51m
Waning Gibbous, 73% of the Moon is Illuminated
Jan 2
Waning Gibbous
Jan 4
Last Quarter
Jan 11
New
Jan 18
First Quarter
Jan 26
Full

Hourly Weather History & Observations

Time (HST) Temp. Dew Point Humidity Pressure Visibility Wind Dir Wind Speed Gust Speed Precip Events Conditions
12:10 AM 64.4 °F 62.6 °F 94% 30.08 in 10.0 mi NNW 4.6 mph - N/A   Light Drizzle
12:19 AM 64.4 °F 62.6 °F 94% 30.07 in 10.0 mi NW 4.6 mph - N/A   Partly Cloudy
12:50 AM 64.4 °F 62.6 °F 94% 30.06 in 10.0 mi WNW 5.8 mph - N/A   Mostly Cloudy
12:55 AM 65.3 °F 62.6 °F 91% 30.06 in 10.0 mi NW 6.9 mph - 0.00 in   Mostly Cloudy
12:58 AM 66.2 °F 62.6 °F 88% 30.06 in 10.0 mi NW 8.1 mph - N/A   Scattered Clouds
1:00 AM 66.2 °F 62.6 °F 88% 30.06 in 10.0 mi NW 8.1 mph - N/A   Mostly Cloudy
1:26 AM 66.2 °F 62.6 °F 88% 30.06 in 10.0 mi NW 8.1 mph - N/A   Scattered Clouds
1:55 AM 65.5 °F 63.1 °F 92% 30.05 in 10.0 mi NW 8.1 mph - 0.01 in   Partly Cloudy
2:31 AM 66.2 °F 62.6 °F 88% 30.04 in 10.0 mi NW 6.9 mph - N/A   Mostly Cloudy
2:54 AM 66.2 °F 62.6 °F 88% 30.03 in 10.0 mi NW 6.9 mph - N/A   Mostly Cloudy
2:55 AM 65.8 °F 63.5 °F 92% 30.03 in 10.0 mi NW 6.9 mph - N/A   Mostly Cloudy
3:40 AM 66.2 °F 64.4 °F 94% 30.02 in 10.0 mi NNW 6.9 mph - N/A   Mostly Cloudy
3:45 AM 66.2 °F 64.4 °F 94% 30.02 in 10.0 mi Variable 4.6 mph - N/A   Light Drizzle
3:55 AM 66.0 °F 63.7 °F 92% 30.01 in 10.0 mi WNW 4.6 mph - 0.00 in   Light Drizzle
3:56 AM 66.2 °F 64.4 °F 94% 30.01 in 10.0 mi Variable 5.8 mph - N/A   Mostly Cloudy
4:00 AM 66.2 °F 62.6 °F 88% 30.01 in 10.0 mi NW 3.5 mph - N/A   Scattered Clouds
4:06 AM 66.2 °F 62.6 °F 88% 30.01 in 10.0 mi NW 5.8 mph - N/A   Mostly Cloudy
4:22 AM 66.2 °F 64.4 °F 94% 30.02 in 10.0 mi NW 5.8 mph - N/A   Mostly Cloudy
4:26 AM 66.2 °F 64.4 °F 94% 30.02 in 10.0 mi NW 5.8 mph - N/A   Mostly Cloudy
4:29 AM 66.2 °F 64.4 °F 94% 30.02 in 10.0 mi NW 4.6 mph - N/A   Mostly Cloudy
4:32 AM 66.2 °F 62.6 °F 88% 30.02 in 10.0 mi WNW 4.6 mph - N/A   Mostly Cloudy
4:39 AM 66.2 °F 62.6 °F 88% 30.02 in 10.0 mi NNW 4.6 mph - N/A   Overcast
4:40 AM 66.2 °F 64.4 °F 94% 30.02 in 10.0 mi NNW 5.8 mph - N/A   Mostly Cloudy
4:55 AM 66.2 °F 63.5 °F 91% 30.02 in 10.0 mi NNW 5.8 mph - N/A   Mostly Cloudy
4:58 AM 66.2 °F 64.4 °F 94% 30.02 in 10.0 mi NNW 6.9 mph - N/A   Mostly Cloudy
5:05 AM 66.2 °F 64.4 °F 94% 30.03 in 10.0 mi NNW 6.9 mph - N/A   Mostly Cloudy
5:08 AM 66.2 °F 64.4 °F 94% 30.03 in 10.0 mi NNW 6.9 mph - N/A   Light Drizzle
5:15 AM 66.2 °F 64.4 °F 94% 30.02 in 10.0 mi Variable 4.6 mph - N/A   Light Drizzle
5:20 AM 66.2 °F 64.4 °F 94% 30.03 in 10.0 mi NNW 4.6 mph - N/A   Mostly Cloudy
5:21 AM 66.2 °F 64.4 °F 94% 30.02 in 10.0 mi North 5.8 mph - N/A   Mostly Cloudy
5:22 AM 66.2 °F 64.4 °F 94% 30.02 in 10.0 mi North 6.9 mph - N/A   Mostly Cloudy
5:55 AM 66.4 °F 63.7 °F 91% 30.03 in 10.0 mi WNW 5.8 mph - 0.00 in   Overcast
6:55 AM 66.9 °F 63.7 °F 89% 30.04 in 10.0 mi NNW 4.6 mph - N/A   Mostly Cloudy
6:59 AM 66.2 °F 64.4 °F 94% 30.04 in 10.0 mi NW 6.9 mph - N/A   Overcast
7:28 AM 66.2 °F 64.4 °F 94% 30.04 in 10.0 mi NW 3.5 mph - N/A   Mostly Cloudy
7:34 AM 66.2 °F 64.4 °F 94% 30.04 in 10.0 mi NW 4.6 mph - N/A   Overcast
7:55 AM 66.7 °F 63.9 °F 90% 30.04 in 10.0 mi NNW 5.8 mph - N/A   Overcast
7:57 AM 66.2 °F 64.4 °F 94% 30.04 in 10.0 mi NW 5.8 mph - N/A   Overcast
7:59 AM 66.2 °F 64.4 °F 94% 30.04 in 10.0 mi NW 5.8 mph - N/A   Overcast
8:08 AM 66.2 °F 64.4 °F 94% 30.05 in 10.0 mi WNW 6.9 mph - N/A   Overcast
8:15 AM 68.0 °F 64.4 °F 88% 30.05 in 10.0 mi NW 6.9 mph - N/A   Overcast
8:23 AM 68.0 °F 64.4 °F 88% 30.05 in 10.0 mi NW 4.6 mph - N/A   Overcast
8:55 AM 68.2 °F 64.9 °F 89% 30.06 in 10.0 mi NW 5.8 mph - N/A   Mostly Cloudy
9:04 AM 68.0 °F 64.4 °F 88% 30.06 in 10.0 mi Variable 6.9 mph - N/A   Overcast
9:05 AM 68.0 °F 64.4 °F 88% 30.06 in 10.0 mi NNW 8.1 mph - N/A   Light Drizzle
9:06 AM 68.0 °F 64.4 °F 88% 30.06 in 10.0 mi Variable 6.9 mph - N/A   Light Drizzle
9:14 AM 68.0 °F 64.4 °F 88% 30.07 in 10.0 mi NNW 5.8 mph - N/A   Overcast
9:35 AM 68.0 °F 66.2 °F 94% 30.07 in 9.0 mi NW 8.1 mph - N/A   Light Drizzle
9:48 AM 68.0 °F 66.2 °F 94% 30.08 in 10.0 mi NW 5.8 mph - N/A   Light Drizzle
9:52 AM 68.0 °F 66.2 °F 94% 30.08 in 10.0 mi NW 5.8 mph - N/A   Light Drizzle
9:54 AM 68.0 °F 66.2 °F 94% 30.08 in 10.0 mi NW 5.8 mph - N/A   Mostly Cloudy
9:55 AM 68.4 °F 65.5 °F 90% 30.07 in 10.0 mi NW 5.8 mph - 0.00 in   Mostly Cloudy
10:14 AM 68.0 °F 66.2 °F 94% 30.07 in 10.0 mi Variable 5.8 mph - N/A   Overcast
10:19 AM 69.8 °F 66.2 °F 88% 30.07 in 10.0 mi Variable 5.8 mph - N/A   Overcast
10:31 AM 69.8 °F 66.2 °F 88% 30.06 in 10.0 mi NNW 4.6 mph - N/A   Mostly Cloudy
10:32 AM 69.8 °F 66.2 °F 88% 30.07 in 10.0 mi North 3.5 mph - N/A   Mostly Cloudy
10:41 AM 69.8 °F 66.2 °F 88% 30.06 in 10.0 mi Variable 3.5 mph - N/A   Mostly Cloudy
10:42 AM 69.8 °F 66.2 °F 88% 30.06 in 10.0 mi Variable 3.5 mph - N/A   Mostly Cloudy
10:55 AM 70.7 °F 65.3 °F 83% 30.06 in 10.0 mi NE 10.4 mph 17.3 mph N/A   Mostly Cloudy
11:12 AM 69.8 °F 64.4 °F 83% 30.06 in 8.0 mi ENE 8.1 mph - N/A   Light Drizzle
11:22 AM 69.8 °F 64.4 °F 83% 30.06 in 9.0 mi NE 6.9 mph - N/A   Overcast
11:33 AM 69.8 °F 64.4 °F 83% 30.05 in 10.0 mi NE 6.9 mph - N/A   Mostly Cloudy
11:55 AM 70.3 °F 65.5 °F 85% 30.04 in 10.0 mi Variable 3.5 mph - 0.00 in   Mostly Cloudy
12:16 PM 71.6 °F 66.2 °F 83% 30.03 in 10.0 mi NNE 6.9 mph - N/A   Overcast
12:26 PM 71.6 °F 64.4 °F 78% 30.03 in 10.0 mi NE 6.9 mph - N/A   Mostly Cloudy
12:55 PM 71.8 °F 64.4 °F 77% 30.01 in 10.0 mi ENE 10.4 mph - N/A   Mostly Cloudy
1:21 PM 71.6 °F 64.4 °F 78% 30.01 in 10.0 mi NE 6.9 mph - N/A   Overcast
1:24 PM 71.6 °F 64.4 °F 78% 30.00 in 10.0 mi Variable 6.9 mph - N/A   Overcast
1:36 PM 71.6 °F 64.4 °F 78% 29.99 in 10.0 mi NNE 8.1 mph - N/A   Mostly Cloudy
1:39 PM 71.6 °F 64.4 °F 78% 29.99 in 10.0 mi Variable 3.5 mph - N/A   Mostly Cloudy
1:55 PM 71.8 °F 64.0 °F 77% 29.98 in 10.0 mi ENE 10.4 mph 20.7 mph N/A   Overcast
2:55 PM 71.6 °F 64.2 °F 77% 29.97 in 10.0 mi ENE 6.9 mph - N/A   Overcast
3:26 PM 71.6 °F 64.4 °F 78% 29.97 in 10.0 mi NE 8.1 mph - N/A   Light Drizzle
3:34 PM 71.6 °F 64.4 °F 78% 29.96 in 10.0 mi Variable 4.6 mph - N/A   Mostly Cloudy
3:35 PM 71.6 °F 64.4 °F 78% 29.96 in 10.0 mi Variable 3.5 mph - N/A   Mostly Cloudy
3:40 PM 71.6 °F 64.4 °F 78% 29.97 in 10.0 mi NNE 5.8 mph - N/A   Mostly Cloudy
3:41 PM 71.6 °F 64.4 °F 78% 29.97 in 10.0 mi Variable 6.9 mph - N/A   Mostly Cloudy
3:55 PM 71.2 °F 64.4 °F 79% 29.97 in 10.0 mi East 6.9 mph - 0.00 in   Mostly Cloudy
4:15 PM 71.6 °F 64.4 °F 78% 29.97 in 10.0 mi ENE 4.6 mph - N/A   Overcast
4:24 PM 69.8 °F 64.4 °F 83% 29.97 in 10.0 mi NNE 5.8 mph - N/A   Overcast
4:49 PM 69.8 °F 64.4 °F 83% 29.98 in 10.0 mi Variable 6.9 mph - N/A   Overcast
4:50 PM 69.8 °F 64.4 °F 83% 29.98 in 10.0 mi NNE 6.9 mph - N/A   Overcast
4:52 PM 69.8 °F 64.4 °F 83% 29.98 in 10.0 mi NE 8.1 mph - N/A   Overcast
4:53 PM 69.8 °F 64.4 °F 83% 29.98 in 10.0 mi NNE 9.2 mph - N/A   Overcast
4:55 PM 70.2 °F 64.6 °F 82% 29.98 in 10.0 mi NNE 6.9 mph - N/A   Overcast
5:34 PM 69.8 °F 64.4 °F 83% 29.99 in 10.0 mi NE 5.8 mph - N/A   Light Drizzle
5:41 PM 69.8 °F 64.4 °F 83% 29.99 in 10.0 mi North 4.6 mph - N/A   Mostly Cloudy
5:55 PM 69.1 °F 64.4 °F 85% 29.99 in 10.0 mi NNW 4.6 mph - 0.00 in   Overcast
6:14 PM 69.8 °F 64.4 °F 83% 29.99 in 10.0 mi NNW 5.8 mph - N/A   Light Drizzle
6:42 PM 68.0 °F 64.4 °F 88% 30.00 in 8.0 mi NW 3.5 mph - N/A   Light Drizzle
6:46 PM 68.0 °F 64.4 °F 88% 30.00 in 9.0 mi NNW 3.5 mph - N/A   Scattered Clouds
6:52 PM 68.0 °F 64.4 °F 88% 30.00 in 10.0 mi NNW 5.8 mph - N/A   Light Drizzle
6:55 PM 68.2 °F 64.9 °F 89% 30.00 in 9.0 mi North 4.6 mph - 0.00 in   Light Drizzle
7:19 PM 68.0 °F 64.4 °F 88% 30.01 in 10.0 mi NW 4.6 mph - N/A   Scattered Clouds
7:26 PM 68.0 °F 64.4 °F 88% 30.01 in 10.0 mi NW 5.8 mph - N/A   Scattered Clouds
7:28 PM 68.0 °F 64.4 °F 88% 30.01 in 10.0 mi NNW 4.6 mph - N/A   Light Drizzle
7:33 PM 68.0 °F 64.4 °F 88% 30.01 in 10.0 mi NNW 4.6 mph - N/A   Light Drizzle
7:47 PM 68.0 °F 64.4 °F 88% 30.02 in 9.0 mi WNW 3.5 mph - N/A   Scattered Clouds
7:50 PM 68.0 °F 64.4 °F 88% 30.02 in 10.0 mi Variable 3.5 mph - N/A   Mostly Cloudy
7:51 PM 68.0 °F 64.4 °F 88% 30.02 in 10.0 mi WNW 3.5 mph - N/A   Mostly Cloudy
7:52 PM 68.0 °F 64.4 °F 88% 30.02 in 9.0 mi Calm Calm - N/A   Light Drizzle
7:55 PM 67.5 °F 65.1 °F 92% 30.02 in 8.0 mi Calm Calm - 0.00 in   Light Drizzle
8:04 PM 68.0 °F 64.4 °F 88% 30.02 in 9.0 mi NNW 5.8 mph - N/A   Light Drizzle
8:22 PM 68.0 °F 64.4 °F 88% 30.03 in 10.0 mi NW 3.5 mph - N/A   Light Drizzle
8:23 PM 68.0 °F 64.4 °F 88% 30.03 in 10.0 mi Variable 4.6 mph - N/A   Light Drizzle
8:24 PM 68.0 °F 64.4 °F 88% 30.03 in 10.0 mi Variable 4.6 mph - N/A   Scattered Clouds
8:36 PM 68.0 °F 64.4 °F 88% 30.03 in 10.0 mi North 4.6 mph - N/A   Light Drizzle
8:50 PM 68.0 °F 64.4 °F 88% 30.04 in 5.0 mi NW 3.5 mph - N/A Rain Light Rain
8:55 PM 67.1 °F 65.1 °F 93% 30.04 in 7.0 mi NW 3.5 mph - 0.01 in   Light Drizzle
9:00 PM 66.2 °F 64.4 °F 94% 30.04 in 10.0 mi Calm Calm - N/A   Mostly Cloudy
9:03 PM 66.2 °F 64.4 °F 94% 30.04 in 10.0 mi NW 3.5 mph - N/A   Light Drizzle
9:12 PM 66.2 °F 64.4 °F 94% 30.04 in 10.0 mi NW 4.6 mph - N/A   Light Drizzle
9:15 PM 66.2 °F 64.4 °F 94% 30.04 in 10.0 mi NW 4.6 mph - N/A   Scattered Clouds
9:20 PM 66.2 °F 64.4 °F 94% 30.04 in 10.0 mi NW 3.5 mph - N/A   Light Drizzle
9:26 PM 66.2 °F 64.4 °F 94% 30.04 in 6.0 mi Calm Calm - N/A Rain Light Rain
9:34 PM 66.2 °F 64.4 °F 94% 30.04 in 2.5 mi NNW 4.6 mph - N/A Rain Rain
9:36 PM 66.2 °F 64.4 °F 94% 30.04 in 3.0 mi NNW 3.5 mph - N/A Rain Light Rain
9:47 PM 66.2 °F 64.4 °F 94% 30.04 in 10.0 mi West 3.5 mph - N/A   Mostly Cloudy
9:53 PM 66.2 °F 64.4 °F 94% 30.04 in 10.0 mi West 4.6 mph - N/A   Light Drizzle
9:55 PM 66.6 °F 64.8 °F 94% 30.04 in 7.0 mi WNW 3.5 mph - 0.02 in   Light Drizzle
9:58 PM 66.2 °F 64.4 °F 94% 30.04 in 5.0 mi WNW 3.5 mph - N/A Rain Light Rain
10:32 PM 66.2 °F 64.4 °F 94% 30.04 in 4.0 mi NW 3.5 mph - N/A Rain Light Rain
10:55 PM 66.9 °F 65.1 °F 94% 30.04 in 6.0 mi North 5.8 mph - 0.04 in Rain Light Rain
11:15 PM 66.2 °F 64.4 °F 94% 30.04 in 9.0 mi NNW 4.6 mph - N/A   Light Drizzle
11:20 PM 66.2 °F 64.4 °F 94% 30.03 in 10.0 mi North 4.6 mph - N/A   Light Drizzle
11:22 PM 66.2 °F 64.4 °F 94% 30.04 in 10.0 mi North 4.6 mph - N/A   Light Drizzle
11:30 PM 66.2 °F 64.4 °F 94% 30.03 in 6.0 mi North 3.5 mph - N/A Rain Light Rain
11:55 PM 66.7 °F 64.9 °F 94% 30.02 in 7.0 mi NW 8.1 mph - 0.02 in Rain Light Rain